| time (UTC) | temp F | wind direction | speed MPH | gust MPH | rain 1hr in | rain 24hr in | rain mn in | humidity % | barometer mb |
| 20260904165022 | 120 | 227 | 4.0 | 11.0 | 0.00 | 0.06 | 0.00 | 100 | 1017.4 |
| 20260904164743 | 120 | 227 | 4.0 | 11.0 | 0.00 | 0.06 | 0.00 | 100 | 1017.4 |
| 20260904164359 | 114 | 213 | 10.0 | 10.0 | 0.00 | 0.06 | 0.00 | 100 | 1017.4 |
| 20260904164243 | 114 | 213 | 10.0 | 10.0 | 0.00 | 0.06 | 0.00 | 100 | 1017.4 |
| 20260904163743 | 119 | 223 | 9.0 | 11.0 | 0.00 | 0.06 | 0.00 | 100 | 1017.5 |
| 20260904163717 | 109 | 196 | 7.0 | 9.0 | 0.00 | 0.06 | 0.00 | 100 | 1017.6 |
| 20260904163243 | 109 | 196 | 7.0 | 9.0 | 0.00 | 0.06 | 0.00 | 100 | 1017.6 |
| 20260904163031 | 118 | 227 | 6.0 | 9.0 | 0.00 | 0.06 | 0.00 | 100 | 1017.7 |
| 20260904162743 | 118 | 227 | 6.0 | 9.0 | 0.00 | 0.06 | 0.00 | 100 | 1017.7 |
| 20260904162537 | 118 | 151 | 4.0 | 11.0 | 0.00 | 0.06 | 0.00 | 100 | 1017.8 |
| 20260904162243 | 118 | 151 | 4.0 | 11.0 | 0.00 | 0.06 | 0.00 | 100 | 1017.8 |
| 20260904161743 | 117 | 232 | 8.0 | 15.0 | 0.00 | 0.06 | 0.00 | 100 | 1017.8 |
| 20260904161613 | 116 | 219 | 3.0 | 13.0 | 0.00 | 0.06 | 0.00 | 100 | 1017.8 |
| 20260904161243 | 116 | 219 | 3.0 | 13.0 | 0.00 | 0.06 | 0.00 | 100 | 1017.8 |
| 20260904160743 | 116 | 195 | 7.0 | 9.0 | 0.00 | 0.06 | 0.00 | 100 | 1017.8 |
| 20260904160243 | 111 | 195 | 5.0 | 10.0 | 0.00 | 0.06 | 0.00 | 100 | 1017.9 |
| 20260904160116 | 112 | 243 | 7.0 | 11.0 | 0.00 | 0.06 | 0.00 | 100 | 1017.8 |
| 20260904155743 | 112 | 243 | 7.0 | 11.0 | 0.00 | 0.06 | 0.00 | 100 | 1017.8 |
| 20260904155602 | 115 | 248 | 7.0 | 11.0 | 0.00 | 0.06 | 0.00 | 100 | 1017.9 |
| 20260904155243 | 115 | 248 | 7.0 | 11.0 | 0.00 | 0.06 | 0.00 | 100 | 1017.9 |
| 20260904155058 | 112 | 192 | 5.0 | 12.0 | 0.00 | 0.06 | 0.00 | 100 | 1017.9 |
| 20260904154743 | 112 | 192 | 5.0 | 12.0 | 0.00 | 0.06 | 0.00 | 100 | 1017.9 |
| 20260904154627 | 105 | 215 | 8.0 | 11.0 | 0.00 | 0.06 | 0.00 | 100 | 1017.9 |
| 20260904154244 | 105 | 215 | 8.0 | 11.0 | 0.00 | 0.06 | 0.00 | 100 | 1017.9 |
| 20260904154031 | 102 | 208 | 8.0 | 13.0 | 0.00 | 0.06 | 0.00 | 100 | 1017.9 |
| 20260904153744 | 102 | 208 | 8.0 | 13.0 | 0.00 | 0.06 | 0.00 | 100 | 1017.9 |
| 20260904153244 | 109 | 182 | 7.0 | 9.0 | 0.00 | 0.06 | 0.00 | 100 | 1017.9 |
| 20260904152744 | 104 | 261 | 2.0 | 9.0 | 0.00 | 0.06 | 0.00 | 100 | 1017.9 |
| 20260904152544 | 100 | 234 | 6.0 | 8.0 | 0.00 | 0.06 | 0.00 | 100 | 1017.8 |
| 20260904152244 | 100 | 234 | 6.0 | 8.0 | 0.00 | 0.06 | 0.00 | 100 | 1017.8 |
| 20260904152130 | 100 | 208 | 7.0 | 9.0 | 0.00 | 0.06 | 0.00 | 100 | 1017.9 |
| 20260904151744 | 100 | 208 | 7.0 | 9.0 | 0.00 | 0.06 | 0.00 | 100 | 1017.9 |
| 20260904151537 | 103 | 244 | 7.0 | 9.0 | 0.00 | 0.06 | 0.00 | 100 | 1017.8 |
| 20260904151244 | 103 | 244 | 7.0 | 9.0 | 0.00 | 0.06 | 0.00 | 100 | 1017.8 |
| 20260904151015 | 100 | 229 | 7.0 | 8.0 | 0.00 | 0.06 | 0.00 | 100 | 1017.7 |
| 20260904150744 | 100 | 229 | 7.0 | 8.0 | 0.00 | 0.06 | 0.00 | 100 | 1017.7 |
| 20260904150556 | 99 | 187 | 5.0 | 8.0 | 0.00 | 0.06 | 0.00 | 100 | 1017.7 |
| 20260904150244 | 99 | 187 | 5.0 | 8.0 | 0.00 | 0.06 | 0.00 | 100 | 1017.7 |
| 20260904150034 | 98 | 217 | 6.0 | 8.0 | 0.00 | 0.06 | 0.00 | 100 | 1017.6 |
| 20260904145744 | 98 | 217 | 6.0 | 8.0 | 0.00 | 0.06 | 0.00 | 100 | 1017.6 |
| 20260904145556 | 96 | 203 | 6.0 | 8.0 | 0.00 | 0.06 | 0.00 | 100 | 1017.4 |
| 20260904145503 | 96 | 203 | 6.0 | 8.0 | 0.00 | 0.06 | 0.00 | 100 | 1017.4 |
| 20260904145244 | 96 | 203 | 6.0 | 8.0 | 0.00 | 0.06 | 0.00 | 100 | 1017.4 |
| 20260904144744 | 97 | 202 | 5.0 | 9.0 | 0.00 | 0.06 | 0.00 | 100 | 1017.5 |
| 20260904144559 | 96 | 232 | 3.0 | 10.0 | 0.00 | 0.06 | 0.00 | 100 | 1017.5 |
| 20260904144244 | 96 | 232 | 3.0 | 10.0 | 0.00 | 0.06 | 0.00 | 100 | 1017.5 |
| 20260904143956 | 95 | 213 | 8.0 | 9.0 | 0.00 | 0.06 | 0.00 | 100 | 1017.5 |
| 20260904143744 | 95 | 213 | 8.0 | 9.0 | 0.00 | 0.06 | 0.00 | 100 | 1017.5 |
| 20260904143244 | 95 | 210 | 6.0 | 8.0 | 0.00 | 0.06 | 0.00 | 100 | 1017.5 |
| 20260904143030 | 95 | 168 | 7.0 | 9.0 | 0.00 | 0.06 | 0.00 | 100 | 1017.5 |
| 20260904142744 | 95 | 168 | 7.0 | 9.0 | 0.00 | 0.06 | 0.00 | 100 | 1017.5 |
| 20260904142611 | 97 | 125 | 4.0 | 8.0 | 0.00 | 0.06 | 0.00 | 100 | 1017.4 |
| 20260904142244 | 97 | 125 | 4.0 | 8.0 | 0.00 | 0.06 | 0.00 | 100 | 1017.4 |
| 20260904142000 | 98 | 144 | 2.0 | 6.0 | 0.00 | 0.06 | 0.00 | 100 | 1017.3 |
| 20260904141744 | 98 | 144 | 2.0 | 6.0 | 0.00 | 0.06 | 0.00 | 100 | 1017.3 |
| 20260904141615 | 99 | 216 | 3.0 | 7.0 | 0.00 | 0.06 | 0.00 | 100 | 1017.3 |
| 20260904141244 | 99 | 216 | 3.0 | 7.0 | 0.00 | 0.06 | 0.00 | 100 | 1017.3 |
| 20260904141122 | 99 | 163 | 2.0 | 7.0 | 0.00 | 0.06 | 0.00 | 100 | 1017.4 |
| 20260904140744 | 99 | 163 | 2.0 | 7.0 | 0.00 | 0.06 | 0.00 | 100 | 1017.4 |
| 20260904140244 | 100 | 196 | 5.0 | 7.0 | 0.00 | 0.06 | 0.00 | 100 | 1017.3 |
| 20260904135918 | 100 | 189 | 5.0 | 9.0 | 0.00 | 0.06 | 0.00 | 100 | 1017.4 |
| 20260904135744 | 100 | 189 | 5.0 | 9.0 | 0.00 | 0.06 | 0.00 | 100 | 1017.4 |
| 20260904135446 | 100 | 233 | 6.0 | 7.0 | 0.00 | 0.06 | 0.00 | 100 | 1017.3 |
| 20260904135244 | 100 | 233 | 6.0 | 7.0 | 0.00 | 0.06 | 0.00 | 100 | 1017.3 |
| 20260904135000 | 100 | 201 | 5.0 | 6.0 | 0.00 | 0.06 | 0.00 | 100 | 1017.2 |
| 20260904134744 | 100 | 201 | 5.0 | 6.0 | 0.00 | 0.06 | 0.00 | 100 | 1017.2 |
| 20260904134244 | 100 | 222 | 4.0 | 6.0 | 0.00 | 0.06 | 0.00 | 100 | 1017.1 |
| 20260904134007 | 100 | 118 | 1.0 | 7.0 | 0.00 | 0.06 | 0.00 | 100 | 1017.1 |
| 20260904133744 | 100 | 118 | 1.0 | 7.0 | 0.00 | 0.06 | 0.00 | 100 | 1017.1 |
| 20260904133613 | 100 | 187 | 3.0 | 5.0 | 0.00 | 0.06 | 0.00 | 100 | 1017.2 |
| 20260904133244 | 100 | 187 | 3.0 | 5.0 | 0.00 | 0.06 | 0.00 | 100 | 1017.2 |
| 20260904132744 | 98 | 253 | 2.0 | 8.0 | 0.00 | 0.06 | 0.00 | 100 | 1017.2 |
| 20260904132244 | 97 | 174 | 4.0 | 7.0 | 0.00 | 0.06 | 0.00 | 100 | 1017.1 |
| 20260904131856 | 96 | 191 | 3.0 | 6.0 | 0.00 | 0.06 | 0.00 | 100 | 1017.0 |
| 20260904131744 | 96 | 191 | 3.0 | 6.0 | 0.00 | 0.06 | 0.00 | 100 | 1017.0 |
| 20260904131359 | 96 | 246 | 2.0 | 6.0 | 0.00 | 0.06 | 0.00 | 100 | 1016.9 |
| 20260904131244 | 96 | 246 | 2.0 | 6.0 | 0.00 | 0.06 | 0.00 | 100 | 1016.9 |
| 20260904130744 | 95 | 147 | 0.0 | 5.0 | 0.00 | 0.06 | 0.00 | 100 | 1016.9 |
| 20260904130244 | 93 | 156 | 3.0 | 7.0 | 0.00 | 0.06 | 0.00 | 100 | 1016.9 |
| 20260904125744 | 92 | 167 | 3.0 | 10.0 | 0.00 | 0.06 | 0.00 | 100 | 1016.9 |
| 20260904125244 | 91 | 188 | 4.0 | 5.0 | 0.00 | 0.06 | 0.00 | 100 | 1016.8 |
| 20260904124744 | 90 | 195 | 1.0 | 5.0 | 0.00 | 0.06 | 0.00 | 100 | 1016.8 |
| 20260904124522 | 87 | 172 | 3.0 | 6.0 | 0.00 | 0.06 | 0.00 | 100 | 1016.8 |
| 20260904124244 | 87 | 172 | 3.0 | 6.0 | 0.00 | 0.06 | 0.00 | 100 | 1016.8 |
| 20260904123925 | 83 | 213 | 5.0 | 5.0 | 0.00 | 0.06 | 0.00 | 100 | 1016.7 |
| 20260904123744 | 83 | 213 | 5.0 | 5.0 | 0.00 | 0.06 | 0.00 | 100 | 1016.7 |
| 20260904123414 | 82 | 174 | 3.0 | 3.0 | 0.00 | 0.06 | 0.00 | 100 | 1016.6 |
| 20260904123244 | 82 | 174 | 3.0 | 3.0 | 0.00 | 0.06 | 0.00 | 100 | 1016.6 |
| 20260904122922 | 80 | 191 | 2.0 | 5.0 | 0.00 | 0.06 | 0.00 | 100 | 1016.6 |
| 20260904122744 | 80 | 191 | 2.0 | 5.0 | 0.00 | 0.06 | 0.00 | 100 | 1016.6 |
| 20260904122244 | 80 | 135 | 4.0 | 4.0 | 0.00 | 0.06 | 0.00 | 100 | 1016.6 |
| 20260904121932 | 80 | 135 | 0.0 | 3.0 | 0.00 | 0.06 | 0.00 | 100 | 1016.7 |
| 20260904121744 | 80 | 135 | 0.0 | 3.0 | 0.00 | 0.06 | 0.00 | 100 | 1016.7 |
| 20260904121244 | 80 | 140 | 2.0 | 3.0 | 0.00 | 0.06 | 0.00 | 100 | 1016.7 |
| 20260904120744 | 79 | 136 | 0.0 | 0.0 | 0.00 | 0.06 | 0.00 | 100 | 1016.6 |
| 20260904120444 | 78 | 136 | 0.0 | 1.0 | 0.00 | 0.07 | 0.00 | 100 | 1016.5 |
| 20260904120244 | 78 | 136 | 0.0 | 1.0 | 0.00 | 0.07 | 0.00 | 100 | 1016.5 |
| 20260904115744 | 77 | 116 | 0.0 | 0.0 | 0.00 | 0.07 | 0.00 | 100 | 1016.4 |
| 20260904115245 | 77 | 116 | 0.0 | 0.0 | 0.00 | 0.07 | 0.00 | 100 | 1016.4 |
| 20260904115023 | 77 | 116 | 0.0 | 0.0 | 0.00 | 0.07 | 0.00 | 100 | 1016.3 |
| 20260904114745 | 77 | 116 | 0.0 | 0.0 | 0.00 | 0.07 | 0.00 | 100 | 1016.3 |
| 20260904114245 | 77 | 116 | 0.0 | 0.0 | 0.00 | 0.07 | 0.00 | 100 | 1016.4 |
| 20260904114013 | 77 | 116 | 0.0 | 0.0 | 0.00 | 0.07 | 0.00 | 100 | 1016.3 |
| 20260904113745 | 77 | 116 | 0.0 | 0.0 | 0.00 | 0.07 | 0.00 | 100 | 1016.3 |
| 20260904113415 | 77 | 116 | 0.0 | 0.0 | 0.00 | 0.07 | 0.00 | 100 | 1016.3 |
| 20260904113245 | 77 | 116 | 0.0 | 0.0 | 0.00 | 0.07 | 0.00 | 100 | 1016.3 |
| 20260904112953 | 77 | 116 | 0.0 | 0.0 | 0.00 | 0.07 | 0.00 | 100 | 1016.3 |
| 20260904112745 | 77 | 116 | 0.0 | 0.0 | 0.00 | 0.07 | 0.00 | 100 | 1016.3 |
| 20260904112245 | 76 | 116 | 0.0 | 0.0 | 0.00 | 0.07 | 0.00 | 100 | 1016.2 |
| 20260904111745 | 76 | 116 | 0.0 | 0.0 | 0.00 | 0.07 | 0.00 | 100 | 1016.1 |
| 20260904111245 | 76 | 116 | 0.0 | 0.0 | 0.00 | 0.07 | 0.00 | 100 | 1016.2 |
| 20260904110745 | 76 | 116 | 0.0 | 1.0 | 0.00 | 0.07 | 0.00 | 100 | 1016.1 |
| 20260904110245 | 76 | 130 | 0.0 | 0.0 | 0.00 | 0.07 | 0.00 | 100 | 1016.0 |
| 20260904105745 | 76 | 130 | 0.0 | 0.0 | 0.00 | 0.07 | 0.00 | 100 | 1016.0 |
| 20260904105245 | 76 | 130 | 0.0 | 0.0 | 0.00 | 0.07 | 0.00 | 100 | 1016.0 |
| 20260904104745 | 76 | 130 | 0.0 | 0.0 | 0.00 | 0.07 | 0.00 | 100 | 1016.0 |
| 20260904104245 | 76 | 130 | 0.0 | 0.0 | 0.00 | 0.07 | 0.00 | 100 | 1016.0 |
| 20260904103745 | 76 | 130 | 0.0 | 0.0 | 0.00 | 0.07 | 0.00 | 100 | 1015.9 |
| 20260904103245 | 76 | 130 | 0.0 | 0.0 | 0.00 | 0.07 | 0.00 | 100 | 1016.0 |
| 20260904102745 | 76 | 130 | 0.0 | 0.0 | 0.00 | 0.07 | 0.00 | 100 | 1015.9 |
| 20260904102505 | 76 | 130 | 0.0 | 1.0 | 0.00 | 0.07 | 0.00 | 100 | 1015.9 |
| 20260904102245 | 76 | 130 | 0.0 | 1.0 | 0.00 | 0.07 | 0.00 | 100 | 1015.9 |
| 20260904101745 | 76 | 143 | 0.0 | 0.0 | 0.00 | 0.07 | 0.00 | 100 | 1015.8 |
| 20260904101346 | 76 | 143 | 0.0 | 0.0 | 0.00 | 0.07 | 0.00 | 100 | 1015.7 |
| 20260904101245 | 76 | 143 | 0.0 | 0.0 | 0.00 | 0.07 | 0.00 | 100 | 1015.7 |
| 20260904100943 | 76 | 143 | 0.0 | 0.0 | 0.00 | 0.07 | 0.00 | 100 | 1015.7 |
| 20260904100745 | 76 | 143 | 0.0 | 0.0 | 0.00 | 0.07 | 0.00 | 100 | 1015.7 |
| 20260904100443 | 76 | 143 | 0.0 | 0.0 | 0.00 | 0.07 | 0.00 | 100 | 1015.5 |
| 20260904100245 | 76 | 143 | 0.0 | 0.0 | 0.00 | 0.07 | 0.00 | 100 | 1015.5 |
| 20260904100031 | 76 | 143 | 0.0 | 0.0 | 0.00 | 0.07 | 0.00 | 100 | 1015.5 |
| 20260904095745 | 76 | 143 | 0.0 | 0.0 | 0.00 | 0.07 | 0.00 | 100 | 1015.5 |
| 20260904095521 | 76 | 143 | 0.0 | 0.0 | 0.00 | 0.07 | 0.00 | 100 | 1015.4 |
| 20260904095245 | 76 | 143 | 0.0 | 0.0 | 0.00 | 0.07 | 0.00 | 100 | 1015.4 |
| 20260904094745 | 76 | 143 | 0.0 | 0.0 | 0.00 | 0.07 | 0.00 | 100 | 1015.2 |
| 20260904094245 | 76 | 143 | 0.0 | 0.0 | 0.00 | 0.07 | 0.00 | 100 | 1015.3 |
| 20260904093745 | 76 | 143 | 0.0 | 0.0 | 0.00 | 0.07 | 0.00 | 100 | 1015.3 |
| 20260904093245 | 76 | 143 | 0.0 | 0.0 | 0.00 | 0.07 | 0.00 | 100 | 1015.2 |
| 20260904092955 | 76 | 143 | 0.0 | 0.0 | 0.00 | 0.07 | 0.00 | 100 | 1015.1 |
| 20260904092745 | 76 | 143 | 0.0 | 0.0 | 0.00 | 0.07 | 0.00 | 100 | 1015.1 |
| 20260904092545 | 76 | 143 | 0.0 | 0.0 | 0.00 | 0.07 | 0.00 | 100 | 1015.2 |
| 20260904092245 | 76 | 143 | 0.0 | 0.0 | 0.00 | 0.07 | 0.00 | 100 | 1015.2 |
| 20260904091745 | 76 | 143 | 0.0 | 0.0 | 0.00 | 0.07 | 0.00 | 100 | 1015.2 |
| 20260904091245 | 76 | 143 | 0.0 | 0.0 | 0.00 | 0.07 | 0.00 | 100 | 1015.2 |
| 20260904090942 | 76 | 143 | 0.0 | 0.0 | 0.00 | 0.07 | 0.00 | 100 | 1015.2 |
| 20260904090745 | 76 | 143 | 0.0 | 0.0 | 0.00 | 0.07 | 0.00 | 100 | 1015.2 |
| 20260904090525 | 76 | 143 | 0.0 | 0.0 | 0.00 | 0.07 | 0.00 | 100 | 1015.2 |
| 20260904090245 | 76 | 143 | 0.0 | 0.0 | 0.00 | 0.07 | 0.00 | 100 | 1015.2 |
| 20260904085745 | 76 | 143 | 0.0 | 0.0 | 0.00 | 0.07 | 0.00 | 100 | 1015.1 |
| 20260904085245 | 76 | 143 | 0.0 | 0.0 | 0.00 | 0.07 | 0.00 | 100 | 1015.1 |
| 20260904084745 | 77 | 143 | 0.0 | 0.0 | 0.00 | 0.07 | 0.00 | 100 | 1015.1 |
| 20260904084245 | 76 | 143 | 0.0 | 0.0 | 0.00 | 0.07 | 0.00 | 100 | 1015.2 |
| 20260904083745 | 76 | 143 | 0.0 | 0.0 | 0.00 | 0.07 | 0.00 | 100 | 1015.2 |
| 20260904083245 | 77 | 143 | 0.0 | 0.0 | 0.00 | 0.07 | 0.00 | 100 | 1015.3 |
| 20260904082745 | 77 | 143 | 0.0 | 0.0 | 0.00 | 0.07 | 0.00 | 100 | 1015.2 |
| 20260904082245 | 76 | 143 | 0.0 | 0.0 | 0.00 | 0.07 | 0.00 | 100 | 1015.4 |
| 20260904081954 | 76 | 143 | 0.0 | 0.0 | 0.00 | 0.07 | 0.00 | 100 | 1015.3 |
| 20260904081745 | 76 | 143 | 0.0 | 0.0 | 0.00 | 0.07 | 0.00 | 100 | 1015.3 |
| 20260904081245 | 77 | 143 | 0.0 | 0.0 | 0.00 | 0.07 | 0.00 | 100 | 1015.3 |
| 20260904080745 | 77 | 143 | 0.0 | 0.0 | 0.00 | 0.07 | 0.00 | 100 | 1015.2 |
| 20260904080534 | 77 | 143 | 0.0 | 0.0 | 0.00 | 0.07 | 0.00 | 100 | 1015.3 |
| 20260904080246 | 77 | 143 | 0.0 | 0.0 | 0.00 | 0.07 | 0.00 | 100 | 1015.3 |
| 20260904080021 | 77 | 143 | 0.0 | 0.0 | 0.00 | 0.07 | 0.00 | 100 | 1015.3 |
| 20260904075746 | 77 | 143 | 0.0 | 0.0 | 0.00 | 0.07 | 0.00 | 100 | 1015.3 |
| 20260904075245 | 77 | 143 | 0.0 | 0.0 | 0.00 | 0.07 | 0.00 | 100 | 1015.3 |
| 20260904075145 | 77 | 143 | 0.0 | 0.0 | 0.00 | 0.07 | 0.00 | 100 | 1015.2 |
| 20260904074746 | 77 | 143 | 0.0 | 0.0 | 0.00 | 0.07 | 0.00 | 100 | 1015.2 |
| 20260904074532 | 77 | 143 | 0.0 | 0.0 | 0.00 | 0.07 | 0.00 | 100 | 1015.2 |
| 20260904074246 | 77 | 143 | 0.0 | 0.0 | 0.00 | 0.07 | 0.00 | 100 | 1015.2 |
| 20260904074008 | 77 | 143 | 0.0 | 0.0 | 0.00 | 0.07 | 0.00 | 100 | 1015.1 |
| 20260904073746 | 77 | 143 | 0.0 | 0.0 | 0.00 | 0.07 | 0.00 | 100 | 1015.1 |
| 20260904073449 | 77 | 143 | 0.0 | 0.0 | 0.00 | 0.07 | 0.00 | 100 | 1015.1 |
| 20260904073246 | 77 | 143 | 0.0 | 0.0 | 0.00 | 0.07 | 0.00 | 100 | 1015.1 |
| 20260904073032 | 77 | 143 | 0.0 | 0.0 | 0.00 | 0.07 | 0.00 | 100 | 1015.2 |
| 20260904072746 | 77 | 143 | 0.0 | 0.0 | 0.00 | 0.07 | 0.00 | 100 | 1015.2 |
| 20260904072550 | 77 | 143 | 0.0 | 0.0 | 0.00 | 0.07 | 0.00 | 100 | 1015.2 |
| 20260904072246 | 77 | 143 | 0.0 | 0.0 | 0.00 | 0.07 | 0.00 | 100 | 1015.2 |
| 20260904072016 | 77 | 143 | 0.0 | 0.0 | 0.00 | 0.07 | 0.00 | 100 | 1015.1 |
| 20260904071746 | 77 | 143 | 0.0 | 0.0 | 0.00 | 0.07 | 0.00 | 100 | 1015.1 |
| 20260904071246 | 77 | 143 | 0.0 | 0.0 | 0.00 | 0.07 | 0.00 | 100 | 1015.1 |
| 20260904071001 | 77 | 143 | 0.0 | 0.0 | 0.00 | 0.07 | 0.00 | 100 | 1015.2 |
| 20260904070746 | 77 | 143 | 0.0 | 0.0 | 0.00 | 0.07 | 0.00 | 100 | 1015.2 |
| 20260904070531 | 77 | 143 | 0.0 | 0.0 | 0.00 | 0.07 | 0.00 | 100 | 1015.3 |
| 20260904070246 | 77 | 143 | 0.0 | 0.0 | 0.00 | 0.07 | 0.00 | 100 | 1015.3 |
| 20260904065953 | 77 | 143 | 0.0 | 0.0 | 0.00 | 0.07 | 0.00 | 100 | 1015.3 |
| 20260904065746 | 77 | 143 | 0.0 | 0.0 | 0.00 | 0.07 | 0.00 | 100 | 1015.3 |
| 20260904065615 | 77 | 143 | 0.0 | 0.0 | 0.00 | 0.07 | 0.00 | 100 | 1015.4 |
| 20260904065246 | 77 | 143 | 0.0 | 0.0 | 0.00 | 0.07 | 0.00 | 100 | 1015.4 |
| 20260904065031 | 77 | 143 | 0.0 | 0.0 | 0.00 | 0.07 | 0.00 | 100 | 1015.4 |
| 20260904064746 | 77 | 143 | 0.0 | 0.0 | 0.00 | 0.07 | 0.00 | 100 | 1015.4 |
| 20260904064445 | 77 | 143 | 0.0 | 0.0 | 0.00 | 0.07 | 0.00 | 100 | 1015.2 |
| 20260904064246 | 77 | 143 | 0.0 | 0.0 | 0.00 | 0.07 | 0.00 | 100 | 1015.2 |
| 20260904063746 | 77 | 143 | 0.0 | 0.0 | 0.00 | 0.07 | 0.00 | 100 | 1015.3 |
| 20260904063246 | 77 | 143 | 0.0 | 0.0 | 0.00 | 0.07 | 0.00 | 100 | 1015.4 |
| 20260904063024 | 77 | 143 | 0.0 | 0.0 | 0.00 | 0.07 | 0.00 | 100 | 1015.5 |
| 20260904062746 | 77 | 143 | 0.0 | 0.0 | 0.00 | 0.07 | 0.00 | 100 | 1015.5 |
| 20260904062613 | 77 | 143 | 0.0 | 0.0 | 0.00 | 0.07 | 0.00 | 100 | 1015.5 |
| 20260904062246 | 77 | 143 | 0.0 | 0.0 | 0.00 | 0.07 | 0.00 | 100 | 1015.5 |
| 20260904061746 | 77 | 143 | 0.0 | 0.0 | 0.00 | 0.07 | 0.00 | 100 | 1015.4 |
| 20260904061246 | 77 | 143 | 0.0 | 0.0 | 0.00 | 0.07 | 0.00 | 100 | 1015.5 |
| 20260904061032 | 77 | 143 | 0.0 | 0.0 | 0.00 | 0.07 | 0.00 | 100 | 1015.6 |
| 20260904060746 | 77 | 143 | 0.0 | 0.0 | 0.00 | 0.07 | 0.00 | 100 | 1015.6 |
| 20260904060246 | 77 | 143 | 0.0 | 0.0 | 0.00 | 0.07 | 0.00 | 100 | 1015.6 |
| 20260904055746 | 77 | 143 | 0.0 | 0.0 | 0.00 | 0.07 | 0.00 | 100 | 1015.6 |
| 20260904055246 | 77 | 143 | 0.0 | 0.0 | 0.00 | 0.07 | 0.00 | 100 | 1015.7 |
| 20260904054746 | 77 | 143 | 0.0 | 0.0 | 0.00 | 0.07 | 0.00 | 100 | 1015.6 |
| 20260904054246 | 77 | 143 | 0.0 | 1.0 | 0.00 | 0.07 | 0.00 | 100 | 1015.7 |
| 20260904053746 | 77 | 144 | 0.0 | 2.0 | 0.00 | 0.07 | 0.00 | 100 | 1015.8 |
| 20260904053246 | 77 | 105 | 0.0 | 0.0 | 0.00 | 0.07 | 0.00 | 100 | 1015.8 |
| 20260904053108 | 77 | 105 | 0.0 | 1.0 | 0.00 | 0.07 | 0.00 | 100 | 1015.8 |
| 20260904052746 | 77 | 105 | 0.0 | 1.0 | 0.00 | 0.07 | 0.00 | 100 | 1015.8 |
| 20260904052246 | 77 | 105 | 0.0 | 1.0 | 0.00 | 0.07 | 0.00 | 100 | 1015.9 |
| 20260904052022 | 78 | 163 | 0.0 | 0.0 | 0.00 | 0.07 | 0.00 | 100 | 1016.0 |
| 20260904051746 | 78 | 163 | 0.0 | 0.0 | 0.00 | 0.07 | 0.00 | 100 | 1016.0 |
| 20260904051511 | 77 | 163 | 0.0 | 0.0 | 0.00 | 0.07 | 0.00 | 100 | 1016.1 |
| 20260904051246 | 77 | 163 | 0.0 | 0.0 | 0.00 | 0.07 | 0.00 | 100 | 1016.1 |
| 20260904051101 | 78 | 163 | 0.0 | 0.0 | 0.00 | 0.07 | 0.00 | 100 | 1016.1 |
| 20260904050746 | 78 | 163 | 0.0 | 0.0 | 0.00 | 0.07 | 0.00 | 100 | 1016.1 |
| 20260904050530 | 78 | 163 | 0.0 | 0.0 | 0.00 | 0.07 | 0.00 | 100 | 1016.2 |
| 20260904050246 | 78 | 163 | 0.0 | 0.0 | 0.00 | 0.07 | 0.00 | 100 | 1016.2 |
| 20260904045746 | 78 | 163 | 0.0 | 0.0 | 0.00 | 0.07 | 0.00 | 100 | 1016.2 |
| 20260904045246 | 78 | 163 | 0.0 | 0.0 | 0.00 | 0.07 | 0.07 | 100 | 1016.1 |
| 20260904044746 | 78 | 163 | 0.0 | 0.0 | 0.00 | 0.07 | 0.07 | 100 | 1016.1 |
| 20260904044556 | 78 | 163 | 0.0 | 0.0 | 0.00 | 0.07 | 0.07 | 100 | 1016.2 |
| 20260904044246 | 78 | 163 | 0.0 | 0.0 | 0.00 | 0.07 | 0.07 | 100 | 1016.2 |
| 20260904043746 | 78 | 163 | 0.0 | 0.0 | 0.00 | 0.07 | 0.07 | 100 | 1016.2 |
| 20260904043532 | 78 | 163 | 0.0 | 0.0 | 0.00 | 0.07 | 0.07 | 100 | 1016.3 |
| 20260904043246 | 78 | 163 | 0.0 | 0.0 | 0.00 | 0.07 | 0.07 | 100 | 1016.3 |
| 20260904043036 | 78 | 163 | 0.0 | 0.0 | 0.00 | 0.07 | 0.07 | 100 | 1016.3 |
| 20260904042746 | 78 | 163 | 0.0 | 0.0 | 0.00 | 0.07 | 0.07 | 100 | 1016.3 |
| 20260904042246 | 78 | 163 | 0.0 | 0.0 | 0.00 | 0.07 | 0.07 | 100 | 1016.4 |
| 20260904041746 | 78 | 163 | 0.0 | 0.0 | 0.00 | 0.07 | 0.07 | 100 | 1016.4 |
| 20260904041246 | 78 | 163 | 0.0 | 0.0 | 0.00 | 0.07 | 0.07 | 100 | 1016.3 |
| 20260904040746 | 78 | 163 | 0.0 | 0.0 | 0.00 | 0.07 | 0.07 | 100 | 1016.3 |
| 20260904040246 | 78 | 163 | 0.0 | 0.0 | 0.00 | 0.08 | 0.07 | 100 | 1016.3 |
| 20260904040002 | 78 | 163 | 0.0 | 0.0 | 0.00 | 0.08 | 0.07 | 100 | 1016.3 |
| 20260904035746 | 78 | 163 | 0.0 | 0.0 | 0.00 | 0.08 | 0.07 | 100 | 1016.3 |
| 20260904035247 | 78 | 163 | 0.0 | 0.0 | 0.00 | 0.08 | 0.07 | 100 | 1016.3 |
| 20260904035005 | 78 | 163 | 0.0 | 0.0 | 0.00 | 0.08 | 0.07 | 100 | 1016.3 |
| 20260904034747 | 78 | 163 | 0.0 | 0.0 | 0.00 | 0.08 | 0.07 | 100 | 1016.3 |
| 20260904034555 | 78 | 163 | 0.0 | 0.0 | 0.00 | 0.08 | 0.07 | 100 | 1016.4 |
| 20260904034247 | 78 | 163 | 0.0 | 0.0 | 0.00 | 0.08 | 0.07 | 100 | 1016.4 |
| 20260904033747 | 78 | 163 | 0.0 | 0.0 | 0.00 | 0.08 | 0.07 | 100 | 1016.4 |
| 20260904033247 | 78 | 163 | 0.0 | 0.0 | 0.00 | 0.08 | 0.07 | 100 | 1016.4 |
| 20260904033002 | 78 | 163 | 0.0 | 0.0 | 0.00 | 0.08 | 0.07 | 100 | 1016.4 |
| 20260904032747 | 78 | 163 | 0.0 | 0.0 | 0.00 | 0.08 | 0.07 | 100 | 1016.4 |
| 20260904032247 | 78 | 163 | 0.0 | 0.0 | 0.00 | 0.08 | 0.07 | 100 | 1016.3 |
| 20260904032012 | 78 | 163 | 0.0 | 0.0 | 0.00 | 0.08 | 0.07 | 100 | 1016.3 |
| 20260904031747 | 78 | 163 | 0.0 | 0.0 | 0.00 | 0.08 | 0.07 | 100 | 1016.3 |
| 20260904031456 | 78 | 163 | 0.0 | 0.0 | 0.00 | 0.08 | 0.07 | 100 | 1016.3 |
| 20260904031247 | 78 | 163 | 0.0 | 0.0 | 0.00 | 0.08 | 0.07 | 100 | 1016.3 |
| 20260904030747 | 78 | 163 | 0.0 | 0.0 | 0.00 | 0.08 | 0.07 | 100 | 1016.2 |
| 20260904030247 | 78 | 163 | 0.0 | 0.0 | 0.00 | 0.11 | 0.07 | 100 | 1016.3 |
| 20260904025747 | 78 | 163 | 0.0 | 0.0 | 0.00 | 0.11 | 0.07 | 100 | 1016.2 |
| 20260904025425 | 78 | 163 | 0.0 | 2.0 | 0.00 | 0.11 | 0.07 | 100 | 1016.1 |
| 20260904025247 | 78 | 163 | 0.0 | 2.0 | 0.00 | 0.11 | 0.07 | 100 | 1016.1 |
| 20260904025034 | 78 | 163 | 0.0 | 3.0 | 0.00 | 0.11 | 0.07 | 100 | 1016.0 |
| 20260904024747 | 78 | 163 | 0.0 | 3.0 | 0.00 | 0.11 | 0.07 | 100 | 1016.0 |
| 20260904024247 | 78 | 118 | 0.0 | 3.0 | 0.00 | 0.11 | 0.07 | 100 | 1016.0 |
| 20260904023747 | 78 | 150 | 2.0 | 4.0 | 0.00 | 0.11 | 0.07 | 100 | 1016.0 |
| 20260904023247 | 78 | 177 | 0.0 | 0.0 | 0.00 | 0.11 | 0.07 | 100 | 1016.0 |
| 20260904022747 | 78 | 177 | 0.0 | 0.0 | 0.00 | 0.11 | 0.07 | 100 | 1016.0 |
| 20260904022247 | 78 | 177 | 0.0 | 0.0 | 0.00 | 0.11 | 0.07 | 100 | 1016.1 |
| 20260904021747 | 78 | 177 | 0.0 | 3.0 | 0.00 | 0.11 | 0.07 | 100 | 1016.1 |
| 20260904021247 | 78 | 182 | 0.0 | 4.0 | 0.00 | 0.11 | 0.07 | 100 | 1016.3 |
| 20260904021052 | 78 | 150 | 2.0 | 4.0 | 0.00 | 0.11 | 0.07 | 100 | 1016.4 |
| 20260904020747 | 78 | 150 | 2.0 | 4.0 | 0.00 | 0.11 | 0.07 | 100 | 1016.4 |
| 20260904020247 | 78 | 171 | 0.0 | 6.0 | 0.00 | 0.12 | 0.07 | 100 | 1016.4 |
| 20260904015747 | 78 | 102 | 4.0 | 9.0 | 0.00 | 0.12 | 0.07 | 100 | 1016.3 |
| 20260904015612 | 78 | 126 | 2.0 | 8.0 | 0.00 | 0.12 | 0.07 | 100 | 1016.2 |
| 20260904015247 | 78 | 126 | 2.0 | 8.0 | 0.00 | 0.12 | 0.07 | 100 | 1016.2 |
| 20260904014958 | 78 | 150 | 4.0 | 9.0 | 0.00 | 0.12 | 0.07 | 100 | 1016.3 |
| 20260904014747 | 78 | 150 | 4.0 | 9.0 | 0.00 | 0.12 | 0.07 | 100 | 1016.3 |
| 20260904014504 | 79 | 123 | 0.0 | 6.0 | 0.00 | 0.12 | 0.07 | 100 | 1016.3 |
| 20260904014247 | 79 | 123 | 0.0 | 6.0 | 0.00 | 0.12 | 0.07 | 100 | 1016.3 |
| 20260904013747 | 79 | 133 | 3.0 | 8.0 | 0.00 | 0.12 | 0.07 | 100 | 1016.3 |
| 20260904013505 | 79 | 113 | 3.0 | 8.0 | 0.00 | 0.12 | 0.07 | 100 | 1016.2 |
| 20260904013247 | 79 | 113 | 3.0 | 8.0 | 0.00 | 0.12 | 0.07 | 100 | 1016.2 |
| 20260904013031 | 79 | 98 | 5.0 | 7.0 | 0.00 | 0.12 | 0.07 | 100 | 1016.1 |
| 20260904012747 | 79 | 98 | 5.0 | 7.0 | 0.00 | 0.12 | 0.07 | 100 | 1016.1 |
| 20260904012247 | 79 | 106 | 6.0 | 6.0 | 0.00 | 0.12 | 0.07 | 100 | 1016.2 |
| 20260904012128 | 79 | 80 | 3.0 | 5.0 | 0.00 | 0.12 | 0.07 | 100 | 1016.2 |
| 20260904011747 | 79 | 80 | 3.0 | 5.0 | 0.00 | 0.12 | 0.07 | 100 | 1016.2 |
| 20260904011247 | 79 | 129 | 2.0 | 7.0 | 0.00 | 0.12 | 0.07 | 100 | 1016.1 |
| 20260904010747 | 79 | 92 | 3.0 | 5.0 | 0.00 | 0.12 | 0.07 | 100 | 1016.2 |
| 20260904010247 | 80 | 136 | 5.0 | 7.0 | 0.00 | 0.12 | 0.07 | 100 | 1016.1 |
| 20260904005747 | 79 | 126 | 3.0 | 6.0 | 0.00 | 0.12 | 0.07 | 100 | 1016.0 |
| 20260904005247 | 80 | 95 | 3.0 | 3.0 | 0.00 | 0.12 | 0.07 | 100 | 1015.9 |
| 20260904005013 | 80 | 59 | 0.0 | 0.0 | 0.00 | 0.12 | 0.07 | 100 | 1015.8 |
| 20260904004747 | 80 | 59 | 0.0 | 0.0 | 0.00 | 0.12 | 0.07 | 100 | 1015.8 |
| 20260904004247 | 80 | 59 | 0.0 | 0.0 | 0.00 | 0.12 | 0.07 | 100 | 1015.8 |
| 20260904003747 | 80 | 59 | 0.0 | 3.0 | 0.00 | 0.12 | 0.07 | 100 | 1015.6 |
| 20260904003247 | 80 | 53 | 0.0 | 4.0 | 0.00 | 0.12 | 0.07 | 100 | 1015.4 |
| 20260904002820 | 80 | 108 | 1.0 | 5.0 | 0.00 | 0.12 | 0.07 | 100 | 1015.5 |
| 20260904002747 | 80 | 108 | 1.0 | 5.0 | 0.00 | 0.12 | 0.07 | 100 | 1015.5 |
| 20260904002247 | 80 | 99 | 3.0 | 6.0 | 0.00 | 0.12 | 0.07 | 100 | 1015.6 |
| 20260904002053 | 80 | 70 | 2.0 | 5.0 | 0.00 | 0.12 | 0.07 | 100 | 1015.5 |
| 20260904001747 | 80 | 70 | 2.0 | 5.0 | 0.00 | 0.12 | 0.07 | 100 | 1015.5 |
| 20260904001531 | 80 | 75 | 2.0 | 4.0 | 0.00 | 0.12 | 0.07 | 100 | 1015.5 |
| 20260904001247 | 80 | 75 | 2.0 | 4.0 | 0.00 | 0.12 | 0.07 | 100 | 1015.5 |
| 20260904000747 | 80 | 80 | 4.0 | 4.0 | 0.00 | 0.12 | 0.07 | 100 | 1015.5 |
| 20260904000422 | 80 | 75 | 2.0 | 3.0 | 0.00 | 0.13 | 0.07 | 100 | 1015.4 |
| 20260904000248 | 80 | 75 | 2.0 | 3.0 | 0.00 | 0.13 | 0.07 | 100 | 1015.4 |
| 20260903235747 | 80 | 67 | 2.0 | 4.0 | 0.00 | 0.13 | 0.07 | 100 | 1015.5 |
| 20260903235248 | 80 | 102 | 2.0 | 3.0 | 0.00 | 0.13 | 0.07 | 100 | 1015.4 |
| 20260903234748 | 80 | 108 | 1.0 | 3.0 | 0.00 | 0.13 | 0.07 | 100 | 1015.5 |
| 20260903234248 | 81 | 153 | 1.0 | 1.0 | 0.00 | 0.13 | 0.07 | 100 | 1015.4 |
| 20260903233748 | 81 | 147 | 0.0 | 1.0 | 0.00 | 0.13 | 0.07 | 100 | 1015.4 |
| 20260903233248 | 81 | 189 | 0.0 | 4.0 | 0.00 | 0.13 | 0.07 | 100 | 1015.4 |
| 20260903232748 | 81 | 168 | 3.0 | 4.0 | 0.00 | 0.13 | 0.07 | 100 | 1015.3 |
| 20260903232248 | 80 | 140 | 1.0 | 4.0 | 0.00 | 0.13 | 0.07 | 100 | 1015.3 |
| 20260903232058 | 81 | 170 | 2.0 | 8.0 | 0.00 | 0.13 | 0.07 | 100 | 1015.3 |
| 20260903231748 | 81 | 170 | 2.0 | 8.0 | 0.00 | 0.13 | 0.07 | 100 | 1015.3 |
| 20260903231248 | 81 | 243 | 5.0 | 7.0 | 0.00 | 0.13 | 0.07 | 100 | 1015.5 |
| 20260903231034 | 81 | 236 | 4.0 | 6.0 | 0.00 | 0.13 | 0.07 | 100 | 1015.5 |
| 20260903230748 | 81 | 236 | 4.0 | 6.0 | 0.00 | 0.13 | 0.07 | 100 | 1015.5 |
| 20260903230248 | 82 | 168 | 0.0 | 0.0 | 0.00 | 0.13 | 0.07 | 100 | 1015.3 |
| 20260903230020 | 82 | 168 | 0.0 | 0.0 | 0.00 | 0.14 | 0.07 | 100 | 1015.4 |
| 20260903225748 | 82 | 168 | 0.0 | 0.0 | 0.00 | 0.14 | 0.07 | 100 | 1015.4 |
| 20260903225248 | 82 | 175 | 0.0 | 3.0 | 0.00 | 0.14 | 0.07 | 100 | 1015.4 |
| 20260903224748 | 82 | 154 | 0.0 | 0.0 | 0.00 | 0.14 | 0.07 | 100 | 1015.4 |
| 20260903224248 | 82 | 154 | 0.0 | 2.0 | 0.00 | 0.14 | 0.07 | 100 | 1015.2 |
| 20260903223748 | 82 | 195 | 2.0 | 2.0 | 0.00 | 0.14 | 0.07 | 100 | 1015.2 |
| 20260903223527 | 82 | 168 | 1.0 | 3.0 | 0.00 | 0.14 | 0.07 | 100 | 1015.1 |
| 20260903223248 | 82 | 168 | 1.0 | 3.0 | 0.00 | 0.14 | 0.07 | 100 | 1015.1 |
| 20260903222955 | 83 | 206 | 3.0 | 4.0 | 0.00 | 0.14 | 0.07 | 100 | 1015.1 |
| 20260903222748 | 83 | 206 | 3.0 | 4.0 | 0.00 | 0.14 | 0.07 | 100 | 1015.1 |
| 20260903222248 | 82 | 225 | 4.0 | 6.0 | 0.00 | 0.14 | 0.07 | 100 | 1014.9 |
| 20260903221748 | 83 | 213 | 3.0 | 5.0 | 0.00 | 0.14 | 0.07 | 100 | 1014.9 |
| 20260903221506 | 83 | 241 | 2.0 | 7.0 | 0.00 | 0.14 | 0.07 | 100 | 1014.7 |
| 20260903221248 | 83 | 241 | 2.0 | 7.0 | 0.00 | 0.14 | 0.07 | 100 | 1014.7 |
| 20260903220748 | 83 | 161 | 4.0 | 4.0 | 0.00 | 0.14 | 0.07 | 100 | 1014.6 |
| 20260903220248 | 84 | 237 | 1.0 | 3.0 | 0.00 | 0.14 | 0.07 | 100 | 1014.4 |
| 20260903215748 | 83 | 181 | 2.0 | 3.0 | 0.00 | 0.14 | 0.07 | 100 | 1014.5 |
| 20260903215248 | 84 | 108 | 0.0 | 2.0 | 0.00 | 0.14 | 0.07 | 100 | 1014.4 |
| 20260903214948 | 83 | 88 | 0.0 | 4.0 | 0.00 | 0.14 | 0.07 | 100 | 1014.4 |
| 20260903214748 | 83 | 88 | 0.0 | 4.0 | 0.00 | 0.14 | 0.07 | 100 | 1014.4 |
| 20260903214533 | 84 | 137 | 2.0 | 3.0 | 0.00 | 0.14 | 0.07 | 100 | 1014.4 |
| 20260903214248 | 84 | 137 | 2.0 | 3.0 | 0.00 | 0.14 | 0.07 | 100 | 1014.4 |
| 20260903213748 | 83 | 122 | 2.0 | 3.0 | 0.00 | 0.14 | 0.07 | 100 | 1014.3 |
| 20260903213539 | 84 | 163 | 3.0 | 3.0 | 0.00 | 0.14 | 0.07 | 100 | 1014.2 |
| 20260903213248 | 84 | 163 | 3.0 | 3.0 | 0.00 | 0.14 | 0.07 | 100 | 1014.2 |
| 20260903213047 | 84 | 94 | 1.0 | 3.0 | 0.00 | 0.14 | 0.07 | 100 | 1014.1 |
| 20260903212748 | 84 | 94 | 1.0 | 3.0 | 0.00 | 0.14 | 0.07 | 100 | 1014.1 |
| 20260903212626 | 84 | 99 | 3.0 | 3.0 | 0.00 | 0.14 | 0.07 | 100 | 1014.1 |
| 20260903212248 | 84 | 99 | 3.0 | 3.0 | 0.00 | 0.14 | 0.07 | 100 | 1014.1 |
| 20260903211748 | 84 | 78 | 0.0 | 0.0 | 0.00 | 0.14 | 0.07 | 100 | 1014.0 |
| 20260903211248 | 84 | 78 | 0.0 | 0.0 | 0.00 | 0.14 | 0.07 | 100 | 1014.0 |
| 20260903211116 | 84 | 78 | 0.0 | 0.0 | 0.00 | 0.14 | 0.07 | 100 | 1013.9 |
| 20260903210748 | 84 | 78 | 0.0 | 0.0 | 0.00 | 0.14 | 0.07 | 100 | 1013.9 |
| 20260903210248 | 84 | 78 | 0.0 | 0.0 | 0.00 | 0.14 | 0.07 | 100 | 1014.1 |
| 20260903210119 | 84 | 78 | 0.0 | 0.0 | 0.00 | 0.14 | 0.07 | 100 | 1014.1 |
| 20260903205748 | 84 | 78 | 0.0 | 0.0 | 0.00 | 0.14 | 0.07 | 100 | 1014.1 |
| 20260903205716 | 84 | 78 | 0.0 | 2.0 | 0.00 | 0.14 | 0.07 | 100 | 1014.1 |
| 20260903205248 | 84 | 78 | 0.0 | 2.0 | 0.00 | 0.14 | 0.07 | 100 | 1014.1 |
| 20260903205101 | 84 | 67 | 1.0 | 4.0 | 0.00 | 0.14 | 0.07 | 100 | 1014.3 |
| 20260903204748 | 84 | 67 | 1.0 | 4.0 | 0.00 | 0.14 | 0.07 | 100 | 1014.3 |
| 20260903204248 | 84 | 87 | 0.0 | 2.0 | 0.00 | 0.14 | 0.07 | 100 | 1014.3 |
| 20260903203950 | 85 | 74 | 2.0 | 2.0 | 0.01 | 0.14 | 0.07 | 100 | 1014.5 |
| 20260903203748 | 85 | 74 | 2.0 | 2.0 | 0.01 | 0.14 | 0.07 | 100 | 1014.5 |
| 20260903203248 | 85 | 66 | 0.0 | 1.0 | 0.01 | 0.14 | 0.07 | 100 | 1014.5 |
| 20260903203035 | 85 | 150 | 1.0 | 2.0 | 0.01 | 0.14 | 0.07 | 100 | 1014.5 |
| 20260903202748 | 85 | 150 | 1.0 | 2.0 | 0.01 | 0.14 | 0.07 | 100 | 1014.5 |
| 20260903202657 | 85 | 139 | 0.0 | 3.0 | 0.01 | 0.14 | 0.07 | 100 | 1014.5 |
| 20260903202248 | 85 | 139 | 0.0 | 3.0 | 0.01 | 0.14 | 0.07 | 100 | 1014.5 |
| 20260903202119 | 86 | 225 | 3.0 | 3.0 | 0.01 | 0.14 | 0.07 | 100 | 1014.5 |
| 20260903201748 | 86 | 225 | 3.0 | 3.0 | 0.01 | 0.14 | 0.07 | 100 | 1014.5 |
| 20260903201536 | 86 | 203 | 0.0 | 1.0 | 0.01 | 0.14 | 0.07 | 100 | 1014.6 |
| 20260903201248 | 86 | 203 | 0.0 | 1.0 | 0.01 | 0.14 | 0.07 | 100 | 1014.6 |
| 20260903200748 | 86 | 219 | 0.0 | 3.0 | 0.01 | 0.14 | 0.07 | 100 | 1014.7 |
| 20260903200249 | 86 | 310 | 0.0 | 0.0 | 0.01 | 0.14 | 0.07 | 100 | 1014.7 |
| 20260903195749 | 86 | 310 | 0.0 | 0.0 | 0.01 | 0.14 | 0.07 | 100 | 1014.7 |
| 20260903195248 | 85 | 310 | 0.0 | 3.0 | 0.01 | 0.14 | 0.07 | 100 | 1014.8 |
| 20260903194749 | 85 | 271 | 1.0 | 3.0 | 0.01 | 0.14 | 0.07 | 100 | 1014.9 |
| 20260903194608 | 85 | 326 | 0.0 | 3.0 | 0.02 | 0.14 | 0.07 | 100 | 1014.9 |
| 20260903194249 | 85 | 326 | 0.0 | 3.0 | 0.02 | 0.14 | 0.07 | 100 | 1014.9 |
| 20260903193749 | 85 | 293 | 1.0 | 3.0 | 0.04 | 0.13 | 0.06 | 100 | 1015.0 |
| 20260903193249 | 85 | 295 | 0.0 | 0.0 | 0.04 | 0.13 | 0.06 | 100 | 1015.0 |
| 20260903193128 | 86 | 295 | 0.0 | 3.0 | 0.05 | 0.13 | 0.06 | 100 | 1015.0 |
| 20260903192749 | 86 | 295 | 0.0 | 3.0 | 0.05 | 0.13 | 0.06 | 100 | 1015.0 |
| 20260903192619 | 86 | 271 | 0.0 | 0.0 | 0.05 | 0.13 | 0.06 | 100 | 1015.0 |
| 20260903192249 | 86 | 271 | 0.0 | 0.0 | 0.05 | 0.13 | 0.06 | 100 | 1015.0 |
| 20260903192138 | 86 | 271 | 0.0 | 2.0 | 0.05 | 0.13 | 0.06 | 100 | 1015.1 |
| 20260903191749 | 86 | 271 | 0.0 | 2.0 | 0.05 | 0.13 | 0.06 | 100 | 1015.1 |
| 20260903191604 | 86 | 261 | 0.0 | 3.0 | 0.05 | 0.13 | 0.06 | 100 | 1015.2 |
| 20260903191249 | 86 | 261 | 0.0 | 3.0 | 0.05 | 0.13 | 0.06 | 100 | 1015.2 |
| 20260903191123 | 85 | 222 | 0.0 | 0.0 | 0.05 | 0.13 | 0.06 | 100 | 1015.2 |
| 20260903190749 | 85 | 222 | 0.0 | 0.0 | 0.05 | 0.13 | 0.06 | 100 | 1015.2 |
| 20260903190447 | 85 | 222 | 0.0 | 2.0 | 0.05 | 0.13 | 0.06 | 100 | 1015.3 |
| 20260903190249 | 85 | 222 | 0.0 | 2.0 | 0.05 | 0.13 | 0.06 | 100 | 1015.3 |
| 20260903190124 | 84 | 272 | 1.0 | 4.0 | 0.05 | 0.13 | 0.06 | 100 | 1015.5 |
| 20260903185749 | 84 | 272 | 1.0 | 4.0 | 0.05 | 0.13 | 0.06 | 100 | 1015.5 |
| 20260903185612 | 84 | 212 | 1.0 | 4.0 | 0.05 | 0.13 | 0.06 | 100 | 1015.7 |
| 20260903185249 | 84 | 212 | 1.0 | 4.0 | 0.05 | 0.13 | 0.06 | 100 | 1015.7 |
| 20260903185014 | 83 | 189 | 2.0 | 8.0 | 0.05 | 0.13 | 0.06 | 100 | 1015.7 |
| 20260903184749 | 83 | 189 | 2.0 | 8.0 | 0.05 | 0.13 | 0.06 | 100 | 1015.7 |
| 20260903184552 | 84 | 212 | 2.0 | 10.0 | 0.04 | 0.12 | 0.05 | 100 | 1015.6 |
| 20260903184513 | 84 | 212 | 2.0 | 10.0 | 0.04 | 0.12 | 0.05 | 100 | 1015.6 |
| 20260903184249 | 84 | 212 | 2.0 | 10.0 | 0.04 | 0.12 | 0.05 | 100 | 1015.6 |
| 20260903183958 | 84 | 175 | 5.0 | 13.0 | 0.01 | 0.09 | 0.02 | 100 | 1015.7 |
| 20260903183749 | 84 | 175 | 5.0 | 13.0 | 0.01 | 0.09 | 0.02 | 100 | 1015.7 |
| 20260903183249 | 83 | 154 | 6.0 | 14.0 | 0.01 | 0.09 | 0.02 | 100 | 1016.0 |
| 20260903182749 | 84 | 210 | 8.0 | 14.0 | 0.00 | 0.08 | 0.01 | 100 | 1015.9 |
| 20260903182533 | 84 | 184 | 5.0 | 19.0 | 0.00 | 0.08 | 0.01 | 100 | 1015.8 |
| 20260903182249 | 84 | 184 | 5.0 | 19.0 | 0.00 | 0.08 | 0.01 | 100 | 1015.8 |
| 20260903181749 | 88 | 185 | 2.0 | 20.0 | 0.00 | 0.08 | 0.01 | 100 | 1015.6 |
| 20260903181533 | 90 | 233 | 9.0 | 11.0 | 0.00 | 0.08 | 0.01 | 100 | 1015.6 |
| 20260903181249 | 90 | 233 | 9.0 | 11.0 | 0.00 | 0.08 | 0.01 | 100 | 1015.6 |
| 20260903180749 | 92 | 243 | 6.0 | 9.0 | 0.00 | 0.08 | 0.01 | 100 | 1015.4 |
| 20260903180534 | 93 | 246 | 6.0 | 8.0 | 0.00 | 0.08 | 0.01 | 100 | 1015.5 |
| 20260903180503 | 93 | 246 | 6.0 | 8.0 | 0.00 | 0.08 | 0.01 | 100 | 1015.5 |
| 20260903180249 | 93 | 246 | 6.0 | 8.0 | 0.00 | 0.08 | 0.01 | 100 | 1015.5 |
| 20260903180042 | 94 | 240 | 5.0 | 8.0 | 0.00 | 0.08 | 0.01 | 100 | 1015.6 |
| 20260903175749 | 94 | 240 | 5.0 | 8.0 | 0.00 | 0.08 | 0.01 | 100 | 1015.6 |
| 20260903175249 | 96 | 157 | 1.0 | 4.0 | 0.00 | 0.08 | 0.01 | 100 | 1015.5 |
| 20260903174749 | 101 | 172 | 2.0 | 3.0 | 0.00 | 0.08 | 0.01 | 100 | 1015.5 |
| 20260903174521 | 111 | 181 | 3.0 | 5.0 | 0.00 | 0.08 | 0.01 | 100 | 1015.5 |
| 20260903174249 | 111 | 181 | 3.0 | 5.0 | 0.00 | 0.08 | 0.01 | 100 | 1015.5 |
| 20260903173930 | 113 | 111 | 2.0 | 3.0 | 0.00 | 0.08 | 0.01 | 100 | 1015.5 |
| 20260903173749 | 113 | 111 | 2.0 | 3.0 | 0.00 | 0.08 | 0.01 | 100 | 1015.5 |
| 20260903173535 | 98 | 90 | 0.0 | 6.0 | 0.00 | 0.08 | 0.01 | 100 | 1015.6 |
| 20260903173249 | 98 | 90 | 0.0 | 6.0 | 0.00 | 0.08 | 0.01 | 100 | 1015.6 |
| 20260903173055 | 104 | 154 | 3.0 | 7.0 | 0.00 | 0.08 | 0.01 | 100 | 1015.6 |
| 20260903172749 | 104 | 154 | 3.0 | 7.0 | 0.00 | 0.08 | 0.01 | 100 | 1015.6 |
| 20260903172616 | 118 | 143 | 3.0 | 6.0 | 0.00 | 0.08 | 0.01 | 100 | 1015.6 |
| 20260903172249 | 118 | 143 | 3.0 | 6.0 | 0.00 | 0.08 | 0.01 | 100 | 1015.6 |
| 20260903171749 | 107 | 99 | 0.0 | 6.0 | 0.00 | 0.08 | 0.01 | 100 | 1015.6 |
| 20260903171456 | 117 | 92 | 2.0 | 5.0 | 0.00 | 0.08 | 0.01 | 100 | 1015.6 |
| 20260903171249 | 117 | 92 | 2.0 | 5.0 | 0.00 | 0.08 | 0.01 | 100 | 1015.6 |
| 20260903170749 | 110 | 74 | 2.0 | 6.0 | 0.00 | 0.08 | 0.01 | 100 | 1015.7 |
| 20260903170554 | 108 | 222 | 5.0 | 8.0 | 0.00 | 0.08 | 0.01 | 100 | 1015.7 |
| 20260903170249 | 108 | 222 | 5.0 | 8.0 | 0.00 | 0.08 | 0.01 | 100 | 1015.7 |
| 20260903170036 | 120 | 260 | 3.0 | 8.0 | 0.00 | 0.08 | 0.01 | 100 | 1015.9 |
| 20260903165749 | 120 | 260 | 3.0 | 8.0 | 0.00 | 0.08 | 0.01 | 100 | 1015.9 |
| 20260903165249 | 121 | 192 | 7.0 | 7.0 | 0.00 | 0.08 | 0.01 | 100 | 1015.9 |